TimeCST,TemperatureF,Dew PointF,Humidity,Sea Level PressureIn,VisibilityMPH,Wind Direction,Wind SpeedMPH,Gust SpeedMPH,PrecipitationIn,Events,Conditions,WindDirDegrees,DateUTC
12:15 AM,1.4,-0.4,92,30.13,10.0,SSW,10.4,-,N/A,Snow,Light Snow,200,2013-01-15 06:15:00
12:35 AM,1.4,-2.2,85,30.13,10.0,South,9.2,-,N/A,,Clear,190,2013-01-15 06:35:00
12:55 AM,1.4,-0.4,92,30.13,10.0,SSW,10.4,-,N/A,,Clear,200,2013-01-15 06:55:00
1:15 AM,1.4,-0.4,92,30.13,10.0,SSW,10.4,-,N/A,,Clear,200,2013-01-15 07:15:00
1:35 AM,1.4,-0.4,92,30.13,10.0,South,11.5,-,N/A,,Clear,190,2013-01-15 07:35:00
1:55 AM,3.2,-0.4,85,30.12,10.0,SSW,12.7,-,N/A,Snow,Light Snow,200,2013-01-15 07:55:00
2:15 AM,3.2,-0.4,85,30.12,10.0,SSW,11.5,-,N/A,,Scattered Clouds,200,2013-01-15 08:15:00
2:35 AM,1.4,-0.4,92,30.12,10.0,South,11.5,-,N/A,Snow,Light Snow,190,2013-01-15 08:35:00
2:55 AM,1.4,-0.4,92,30.11,10.0,South,11.5,-,N/A,,Scattered Clouds,190,2013-01-15 08:55:00
3:15 AM,1.4,-0.4,92,30.10,10.0,South,13.8,-,N/A,,Clear,180,2013-01-15 09:15:00
3:35 AM,1.4,-0.4,92,30.09,10.0,South,12.7,-,N/A,,Scattered Clouds,180,2013-01-15 09:35:00
3:55 AM,1.4,-2.2,85,30.09,10.0,South,10.4,-,N/A,,Scattered Clouds,170,2013-01-15 09:55:00
4:15 AM,1.4,-2.2,85,30.08,10.0,South,9.2,-,N/A,,Mostly Cloudy,180,2013-01-15 10:15:00
4:55 AM,1.4,-2.2,85,30.05,10.0,SSE,10.4,-,N/A,,Clear,160,2013-01-15 10:55:00
5:15 AM,1.4,-0.4,92,30.04,10.0,SSE,10.4,-,N/A,,Mostly Cloudy,160,2013-01-15 11:15:00
5:35 AM,3.2,1.4,92,30.05,10.0,South,10.4,-,N/A,,Overcast,190,2013-01-15 11:35:00
5:55 AM,3.2,1.4,92,30.04,10.0,South,13.8,-,N/A,,Overcast,180,2013-01-15 11:55:00
6:15 AM,5.0,1.4,85,30.02,10.0,South,13.8,-,N/A,,Overcast,170,2013-01-15 12:15:00
6:35 AM,6.8,3.2,85,30.01,10.0,South,13.8,-,N/A,,Overcast,170,2013-01-15 12:35:00
6:55 AM,6.8,3.2,85,30.01,10.0,South,11.5,-,N/A,,Overcast,170,2013-01-15 12:55:00
7:15 AM,6.8,3.2,85,30.00,10.0,SSE,11.5,-,N/A,,Overcast,160,2013-01-15 13:15:00
7:35 AM,6.8,3.2,85,30.00,10.0,SSE,10.4,-,N/A,,Overcast,160,2013-01-15 13:35:00
7:55 AM,8.6,3.2,79,30.00,10.0,South,12.7,-,N/A,,Overcast,170,2013-01-15 13:55:00
8:15 AM,8.6,3.2,79,29.98,10.0,SSE,15.0,-,N/A,,Overcast,160,2013-01-15 14:15:00
8:35 AM,8.6,3.2,79,29.97,10.0,SSE,15.0,-,N/A,,Overcast,160,2013-01-15 14:35:00
8:55 AM,10.4,3.2,73,29.98,10.0,South,13.8,-,N/A,,Mostly Cloudy,170,2013-01-15 14:55:00
9:15 AM,10.4,1.4,67,29.98,10.0,South,13.8,-,N/A,,Scattered Clouds,180,2013-01-15 15:15:00
9:35 AM,10.4,3.2,73,29.98,5.0,South,17.3,-,N/A,,Haze,180,2013-01-15 15:35:00
9:55 AM,12.2,3.2,67,29.97,7.0,South,15.0,-,N/A,Snow,Light Snow,180,2013-01-15 15:55:00
10:15 AM,12.2,5.0,73,29.96,5.0,South,12.7,-,N/A,Snow,Light Snow,180,2013-01-15 16:15:00
10:35 AM,14.0,6.8,73,29.96,3.0,South,16.1,-,N/A,Snow,Light Snow,190,2013-01-15 16:35:00
10:55 AM,15.8,6.8,68,29.95,1.0,SSW,23.0,-,N/A,Snow,Heavy Snow,200,2013-01-15 16:55:00
11:16 AM,15.8,8.6,73,29.95,1.2,SSW,21.9,-,N/A,Snow,Heavy Snow,200,2013-01-15 17:16:00
11:35 AM,15.8,8.6,73,29.94,1.2,SSW,18.4,-,N/A,Snow,Heavy Snow,210,2013-01-15 17:35:00
11:55 AM,17.6,8.6,68,29.93,2.0,SSW,17.3,23.0,N/A,Snow,Light Snow,200,2013-01-15 17:55:00
12:15 PM,17.6,8.6,68,29.91,2.5,SSW,16.1,-,N/A,Snow,Light Snow,200,2013-01-15 18:15:00
12:35 PM,17.6,8.6,68,29.89,4.0,SSW,21.9,25.3,N/A,,Haze,200,2013-01-15 18:35:00
12:55 PM,17.6,10.4,73,29.89,4.0,SSW,20.7,24.2,N/A,,Haze,200,2013-01-15 18:55:00
1:15 PM,17.6,10.4,73,29.87,7.0,SSW,17.3,-,N/A,,Clear,200,2013-01-15 19:15:00
1:35 PM,19.4,10.4,68,29.87,7.0,SSW,18.4,21.9,N/A,,Clear,200,2013-01-15 19:35:00
1:55 PM,19.4,12.2,74,29.86,7.0,SSW,18.4,-,N/A,,Clear,200,2013-01-15 19:55:00
2:15 PM,19.4,10.4,68,29.85,7.0,SSW,18.4,23.0,N/A,,Clear,200,2013-01-15 20:15:00
2:35 PM,17.6,10.4,73,29.84,7.0,SSW,18.4,-,N/A,,Clear,200,2013-01-15 20:35:00
2:55 PM,19.4,10.4,68,29.85,10.0,SSW,18.4,25.3,N/A,,Clear,200,2013-01-15 20:55:00
3:15 PM,19.4,10.4,68,29.85,10.0,SSW,18.4,-,N/A,,Clear,200,2013-01-15 21:15:00
3:35 PM,19.4,12.2,74,29.85,10.0,SSW,16.1,-,N/A,,Clear,210,2013-01-15 21:35:00
3:55 PM,17.6,10.4,73,29.83,10.0,SSW,15.0,-,N/A,,Clear,200,2013-01-15 21:55:00
4:15 PM,15.8,8.6,73,29.82,10.0,SSW,17.3,-,N/A,,Clear,200,2013-01-15 22:15:00
4:35 PM,14.0,8.6,79,29.81,10.0,SSW,15.0,-,N/A,,Clear,200,2013-01-15 22:35:00
4:55 PM,15.8,8.6,73,29.81,10.0,SSW,15.0,-,N/A,,Clear,200,2013-01-15 22:55:00
5:15 PM,15.8,8.6,73,29.80,10.0,SSW,17.3,-,N/A,,Clear,200,2013-01-15 23:15:00
5:35 PM,15.8,10.4,79,29.78,10.0,South,17.3,23.0,N/A,,Clear,190,2013-01-15 23:35:00
5:55 PM,15.8,8.6,73,29.75,10.0,South,19.6,-,N/A,,Clear,190,2013-01-15 23:55:00
6:15 PM,15.8,10.4,79,29.74,10.0,South,21.9,27.6,N/A,,Clear,190,2013-01-16 00:15:00
6:35 PM,15.8,10.4,79,29.72,10.0,South,23.0,27.6,N/A,,Clear,190,2013-01-16 00:35:00
6:55 PM,15.8,10.4,79,29.71,10.0,South,21.9,27.6,N/A,,Scattered Clouds,190,2013-01-16 00:55:00
7:15 PM,15.8,10.4,79,29.69,10.0,South,23.0,27.6,N/A,,Clear,190,2013-01-16 01:15:00
7:35 PM,17.6,10.4,73,29.68,10.0,South,21.9,28.8,N/A,,Scattered Clouds,190,2013-01-16 01:35:00
7:55 PM,17.6,10.4,73,29.67,7.0,SSW,24.2,32.2,N/A,,Scattered Clouds,200,2013-01-16 01:55:00
8:15 PM,17.6,10.4,73,29.66,10.0,SSW,23.0,28.8,N/A,,Mostly Cloudy,200,2013-01-16 02:15:00
8:35 PM,17.6,10.4,73,29.64,10.0,SSW,21.9,28.8,N/A,,Overcast,200,2013-01-16 02:35:00
8:55 PM,17.6,10.4,73,29.61,10.0,South,24.2,29.9,N/A,,Overcast,190,2013-01-16 02:55:00
9:15 PM,17.6,12.2,79,29.59,4.0,South,25.3,32.2,N/A,Snow,Light Snow,190,2013-01-16 03:15:00
9:35 PM,17.6,12.2,79,29.58,1.8,South,23.0,29.9,N/A,Snow,Light Snow,190,2013-01-16 03:35:00
9:55 PM,17.6,14.0,86,29.56,2.0,South,26.5,34.5,N/A,Snow,Light Snow,190,2013-01-16 03:55:00
10:15 PM,17.6,15.8,93,29.54,1.0,South,25.3,31.1,N/A,Snow,Light Snow,190,2013-01-16 04:15:00
10:35 PM,17.6,15.8,93,29.55,1.2,SSW,25.3,29.9,N/A,Snow,Light Snow,200,2013-01-16 04:35:00
10:55 PM,17.6,15.8,93,29.52,1.0,SSW,20.7,-,N/A,Snow,Light Snow,200,2013-01-16 04:55:00
11:15 PM,17.6,15.8,93,29.51,1.0,SSW,23.0,28.8,N/A,Snow,Light Snow,200,2013-01-16 05:15:00
11:35 PM,19.4,17.6,93,29.50,1.2,SSW,24.2,28.8,N/A,Snow,Light Snow,200,2013-01-16 05:35:00